Location: Fort Worth, Tx
(32.7431°N, 97.3695°W)
Time: 11:27:13
(UTC-04:00)

Courier 1B - Pass Details

Date: 24 February 2024
Orbit: 962 x 1208 km, 28.3° (Epoch: 24 April)

Event Time Altitude Azimuth Distance (km) Brightness Sun altitude
Exits shadow 05:29:26 43° 151° (SSE) 1,386 8.3 -33.1°
Drops below altitude 10° 05:34:27 10° 117° (ESE) 2,835 10.5 -32.0°
Sets 05:37:18 0° 112° (ESE) 3,826 11.4 -31.4°
